カタログに戻る

OPS 5644

運用中軍事PO
NORAD 10033·PAYLOAD·🇺🇸 United States

打ち上げ Jun 5, 1977 から Vandenberg Space Force Base

Loading…

次のパス (今後24時間)

TLE

最新Source: Space-Track

元期: Sep 14, 2026, 09:50 UTC

1 10033U 77044A   26257.41028477  .00000139  00000-0  70150-4 0  9994
2 10033  99.1087 310.2011 0037146 331.0818  28.8305 14.31498976380926

AllMySatでOPS 5644をリアルタイム追跡

Download on the App Store